Regional Weather Roundup
Issued by NWS

Home | Current Version | Previous Version | Graphics & Text | Print | Product List | Glossary On
Versions: 1 2 3 4 5 6 7 8 9 10 11 12 13 14 15 16 17 18 19 20 21 22 23 24 25 26 27 28 29 30 31 32 33 34 35 36 37 38 39 40 41 42 43 44 45 46 47 48 49 50
000
ASUS45 KTFX 291710
RWRMT
MONTANA REGIONAL WEATHER ROUNDUP
NATIONAL WEATHER SERVICE GREAT FALLS MT
1100 AM MDT FRI APR 29 2016

NOTE: "FAIR" INDICATES FEW OR NO CLOUDS BELOW 12000 FEET WITH NO
SIGNIFICANT WEATHER AND/OR OBSTRUCTIONS TO VISIBILITY.

MTZ001>007-043-291800-
WEST OF THE DIVIDE

CITY           SKY/WX    TMP DP  RH WIND       PRES   REMARKS
KALISPELL      CLOUDY    48  36  63 CALM      29.92S
MISSOULA       CLOUDY    46  34  62 W5        29.94F
BUTTE          CLOUDY    39  25  57 VRB6      29.91S
MULLAN PASS    CLOUDY    34  25  69 CALM      29.89F
ANACONDA         N/A     43  28  56 S6        29.91F
DEER LODGE       N/A     43  28  56 SE5       29.92F
EUREKA           N/A     46  36  66 S3        29.94S
HAMILTON         N/A     43  34  70 NW3       29.93S
LIBBY            N/A     45  36  70 CALM      29.94F
PLAINS           N/A     46  37  70 CALM      29.95S
$$

MTZ008-052>055-291800-
SOUTHWEST MONTANA

CITY           SKY/WX    TMP DP  RH WIND       PRES   REMARKS
BOZEMAN        CLOUDY    43  29  57 CALM      29.94F
DILLON         CLOUDY    41  27  57 VRB3      29.90S
ENNIS          CLOUDY    41  28  60 CALM      29.96F
TWIN BRIDGES     N/A     45  25  45 N9        29.91F
$$

MTZ009-010-012-014-046-048-049-054-291800-
EAST SLOPES AND CENTRAL MONTANA

CITY           SKY/WX    TMP DP  RH WIND       PRES   REMARKS
CUT BANK       CLOUDY    38  34  85 SE9       29.97S WCI  31
GREAT FALLS    MOSUNNY   44  30  57 CALM      29.97S
HELENA         CLOUDY    45  28  51 CALM      29.94F
CHOTEAU          N/A     41  36  81 CALM      29.97S
CONRAD           N/A     40  40 100 E5        30.00S
$$

MTZ011-013-016-021-045-047-050-051-291800-
NORTH CENTRAL MONTANA

CITY           SKY/WX    TMP DP  RH WIND       PRES   REMARKS
HAVRE          CLOUDY    49  34  56 E13G18    30.03S
LEWISTOWN      CLOUDY    45  32  60 E13       29.98F
N BAR RANCH    CLOUDY    36  36 100 SE9       30.04S WCI  29
CHINOOK          N/A     46  37  71 E12       30.07R
$$

MTZ017>020-022>027-061-062-291800-
NORTHEAST MONTANA

CITY           SKY/WX    TMP DP  RH WIND       PRES   REMARKS
GLASGOW        CLOUDY    47  36  65 SE10      30.11F
JORDAN           N/A     45  36  70 SE14      30.08F
SIDNEY         CLOUDY    54  34  47 SE15G21   30.16F
WOLF POINT     CLOUDY    54  30  40 SE10      30.13F
PLENTYWOOD       N/A     54  23  30 SE17G24   30.16S
POPLAR           N/A     52  27  37 E14G23    30.14F
SCOBEY           N/A     53  22  30 E18       30.13R
$$

MTZ028>42-056>058-291800-
SOUTHCENTRAL AND SOUTHEAST MONTANA

CITY           SKY/WX    TMP DP  RH WIND       PRES   REMARKS
BAKER          CLOUDY    46  34  62 E13G23    30.10F
BILLINGS       CLOUDY    41  36  82 NE7       30.01F
LIVINGSTON     CLOUDY    43  30  60 E12       29.96F
MILES CITY     PTSUNNY   49  36  61 SE12      30.08S
EKALAKA          N/A     43  35  73 SE12      30.07R
FORSYTH          N/A     46  37  71 E12       30.07R
LAUREL           N/A     41  31  68 NE5       29.99F
ROUNDUP          N/A     40  37  89 NE5       29.94F
$$

REGIONAL REPORTS...DAKOTAS

CITY           SKY/WX    TMP DP  RH WIND       PRES   REMARKS
WILLISTON      CLOUDY    54  27  35 SE14      30.18S
MINOT          SUNNY     58  24  27 VRB7      30.20F
DICKINSON      CLOUDY    49  29  46 E15       30.11F
BEACH          CLOUDY    46  32  57 E12       30.14F
CROSBY           N/A     55  21  26 SE14G20   30.21S
TIOGA            N/A     54  23  30 SE14G23   30.23S
WATFORD CITY     N/A     52  25  35 SE14      30.18S
BISMARCK       SUNNY     55  30  38 NE10      30.16F
GRAND FORKS    MOSUNNY   57  32  38 E13       30.22S
FARGO          SUNNY     59  33  37 VRB3      30.17F
BUFFALO SD       N/A     47  34  60 SE12      30.04R
RAPID CITY     CLOUDY    40  34  79 E8        30.09S
$$

REGIONAL REPORTS...WYOMING/IDAHO/WASHINGTON

CITY           SKY/WX    TMP DP  RH WIND       PRES   REMARKS
GILLETTE       CLOUDY    41  32  70 SE7       30.02F
SHERIDAN       CLOUDY    44  26  49 SE3       30.01F
BUFFALO WY       N/A    N/A N/A N/A MISG      30.00F
CODY           CLOUDY    39  28  65 CALM      29.96S
YELLOWSTONE LA   N/A     35  21  56 VRB3      29.93S
IDAHO FALLS    PTSUNNY   49  33  54 SW14      29.90S
SALMON         CLOUDY    41  34  75 CALM      29.91S
BOISE          MOSUNNY   57  39  51 NW10      29.90F
SPOKANE        LGT RAIN  50  37  61 SE5       29.94S
$$

REGIONAL REPORTS...ALBERTA

CITY           SKY/WX    TMP DP  RH WIND       PRES   REMARKS
EDMONTON       SUNNY     57  32  38 S16G29    29.96R
CALGARY        CLOUDY    48  30  49 S17G24    29.95R
LETHBRIDGE     CLOUDY    45  36  70 S15G21    29.97F
MEDICINE HAT   PTSUNNY   50  34  53 SE14G20   30.03R
$$

REGIONAL REPORTS...SASKATCHEWAN

CITY           SKY/WX    TMP DP  RH WIND       PRES   REMARKS
SWIFT CURRENT  MOSUNNY   54  23  30 SE21G26   30.08F
REGINA         MOSUNNY   57  12  17 SE15G25   30.20R
SASKATOON      SUNNY     61  16  17 SE16      30.17F
$$



USA.gov is the U.S. government's official web portal to all federal, state and local government web resources and services.